Regional Weather Roundup
Issued by NWS

Home | Current Version | Previous Version | Text Only | Print | Product List | Glossary On
Versions: 1 2 3 4 5 6 7 8 9 10 11 12 13 14 15 16 17 18 19 20 21 22 23 24 25 26 27 28 29 30 31 32 33 34 35 36 37 38 39 40 41 42 43 44 45 46 47 48 49 50
000
ASUS43 KDTX 152301
RWRMI
MICHIGAN HOURLY REGIONAL WEATHER ROUNDUP
NATIONAL WEATHER SERVICE DETROIT/PONTIAC MI
700 PM EDT SUN OCT 15 2017

NOTE: "FAIR" INDICATES FEW OR NO CLOUDS BELOW 12,000 FEET WITH NO
SIGNIFICANT WEATHER AND/OR OBSTRUCTION TO VISIBILITY.

MIZ047>049-052>055-059>063-066>070-074>076-081>083-160000-
SOUTHEAST LOWER MICHIGAN

CITY           SKY/WX    TMP DP  RH WIND       PRES   REMARKS
ADRIAN         CLOUDY    54  42  64 N16       30.02R
ALMA           MOCLDY    50  41  71 NW10G17   30.06R
ANN ARBOR      MOCLDY    53  42  66 W12G21    30.00R
BAD AXE        CLOUDY    48  39  71 NW13G22   29.98R
CARO           CLOUDY    49  39  70 NW10G22   30.00R
DETROIT CITY   PTCLDY    55  42  61 NW15G30   29.96R
DETROIT        MOCLDY    55  43  63 NW18G28   29.98R
FLINT          CLOUDY    51  39  63 NW13G24   30.01R
GROSSE ILE     MOCLDY    56  44  64 NW20G25   29.96R
HILLSDALE      PTCLDY    50  43  76 NW15G23   30.03R
HOWELL         MOCLDY    51  40  66 NW12G23   30.02R

CITY           SKY/WX    TMP DP  RH WIND       PRES   REMARKS
JACKSON        PTCLDY    52  40  63 NW13G25   30.03R
LAMBERTVILLE   CLOUDY    58  44  58 NW7G22    29.99R
LANSING        CLOUDY    51  40  65 NW12      30.05R
LAPEER         CLOUDY    51  39  64 NW12G24   29.99R
MASON          CLOUDY    53  41  65 NW13G21   30.04R
MONROE         CLOUDY    58  43  57 NW13G23   29.97R
PONTIAC        MOCLDY    54  43  66 NW16      29.97R
PORT HOPE        N/A     50  43  77 NW21G32   29.93R
PORT HURON     CLOUDY    54  41  62 NW22G31   29.94R
TRI CITIES     CLOUDY    51  41  68 NW9       30.03R
MIDLAND        FAIR      49  41  72 NW9       30.03R
TROY           PTCLDY    54  40  60 NW17G32   29.99R
SAGINAW HB     MOCLDY    50  37  62 NW14      30.02R
$$
MIZ043>046-050>051-056>058-064>065-071>073-077>080-160000-
SOUTHWEST LOWER MICHIGAN

CITY           SKY/WX    TMP DP  RH WIND       PRES   REMARKS
BATTLE CREEK   CLOUDY    52  44  74 NW9       30.07R
BENTON HARBOR  CLOUDY    54  42  64 NW10G21   30.11R
BIG RAPIDS     CLOUDY    48  41  77 NW3       30.07R
COLDWATER      CLEAR     50  46  84 NW12      30.06R
FREMONT        CLOUDY    48  45  87 N10       30.09R
HOLLAND        CLOUDY    50  42  74 N7        30.11R
GRAND RAPIDS   MOCLDY    52  41  66 N13G22    30.08R
IONIA          MOCLDY    51  41  68 NW9G17    30.07R
LUDINGTON      MOCLDY    48  42  79 N5        30.10R
MARSHALL       MOCLDY    51  41  70 NW6       30.06R
MOUNT PLEASANT CLOUDY    51  39  63 NW7       30.05R
MUSKEGON       LGT RAIN  50  45  83 N13G20    30.12R
SOUTH HAVEN    LGT RAIN  51  47  86 N14G20    30.11R
$$
MIZ016>042-160000-
NORTHERN LOWER MICHIGAN

CITY           SKY/WX    TMP DP  RH WIND       PRES   REMARKS
ALPENA         CLOUDY    47  42  83 NW14G21   29.98R
BEAVER ISLAND  MOCLDY    46  34  63 N12G22    30.07R
BELLAIRE       CLEAR     46  40  80 CALM      30.05R
CADILLAC       PTCLDY    46  42  83 NW8       30.05R
CHARLEVOIX     MOCLDY    48  37  64 NW18G26   30.08R
FRANKFORT      MOCLDY    51  40  65 N8        30.09R
GAYLORD        CLEAR     43  36  76 VRB5      30.02R
GRAYLING       PTCLDY    43  39  86 NW7       30.03R
HARBOR SPRINGS MOCLDY    44  38  78 W3        30.03R
HOUGHTON LAKE  PTCLDY    45  40  82 NW8       30.03R
MANISTEE       CLOUDY    51  39  63 NW9       30.08R
OSCODA         CLOUDY    48  40  76 NW12G20   29.97R
PELLSTON       PTCLDY    45  38  76 NW9       30.03R
ROGERS CITY    CLOUDY    47  39  76 NW16G23   30.00R
TRAVERSE CITY  PTCLDY    50  38  63 NW14G22   30.05R
$$
MIZ007>008-015-160000-
EASTERN UPPER MICHIGAN

CITY           SKY/WX    TMP DP  RH WIND       PRES   REMARKS
KINROSS        CLOUDY    43  35  73 NW12      30.00R
MACKINAC ISLAN MOCLDY    45  37  74 NW15      30.02R
NEWBERRY       MOCLDY    41  33  74 NW8G20    30.05R
S. S. MARIE    CLOUDY    44  34  67 NW10      29.99R
MUNISING         N/A     47  39  74 N13G22    30.09R
$$
MIZ004>006-011>014-085-160000-
CENTRAL UPPER MICHIGAN

CITY           SKY/WX    TMP DP  RH WIND       PRES   REMARKS
MANISTIQUE     CLOUDY    42  32  67 NW8       30.08R
MENOMINEE      CLEAR     48  40  73 CALM      30.11R
$$
MIZ001>003-009>011-084-160000-
WESTERN UPPER MICHIGAN

CITY           SKY/WX    TMP DP  RH WIND       PRES   REMARKS
IRON MOUNTAIN  PTCLDY    45  33  63 NW8       30.08R
HOUGHTON       MOCLDY    43  32  65 SE3       30.08R
COPPER HARBOR    N/A     44  34  67 VRB3      30.09R
IRONWOOD       CLOUDY    46  36  68 W6        30.11R
$$

ABBREVIATIONS USED IN REMARKS
   TC - TEMPERATURE IN CELSIUS
  WCI - WIND CHILL INDEX
   HX - HEAT INDEX
  VSB - VISIBILITY





USA.gov is the U.S. government's official web portal to all federal, state and local government web resources and services.